TimeEDT,TemperatureF,Dew PointF,Humidity,Sea Level PressureIn,VisibilityMPH,Wind Direction,Wind SpeedMPH,Gust SpeedMPH,PrecipitationIn,Events,Conditions,WindDirDegrees,DateUTC
12:53 AM,60.1,54.0,80,30.14,10.0,East,6.9,-,N/A,,Overcast,100,2013-10-09 04:53:00
1:53 AM,61.0,54.0,78,30.14,10.0,East,4.6,-,N/A,,Overcast,100,2013-10-09 05:53:00
2:53 AM,61.0,53.1,75,30.15,10.0,East,5.8,-,N/A,,Overcast,100,2013-10-09 06:53:00
3:53 AM,60.1,53.1,78,30.15,10.0,Variable,3.5,-,N/A,,Overcast,0,2013-10-09 07:53:00
4:53 AM,59.0,52.0,78,30.15,10.0,East,6.9,-,N/A,,Scattered Clouds,90,2013-10-09 08:53:00
5:53 AM,57.0,52.0,83,30.17,10.0,Calm,Calm,-,N/A,,Mostly Cloudy,0,2013-10-09 09:53:00
6:32 AM,57.2,51.8,82,30.17,10.0,East,3.5,-,N/A,,Scattered Clouds,100,2013-10-09 10:32:00
6:42 AM,57.2,51.8,82,30.17,10.0,East,3.5,-,N/A,,Mostly Cloudy,90,2013-10-09 10:42:00
6:53 AM,57.9,51.1,78,30.17,10.0,East,4.6,-,N/A,,Mostly Cloudy,90,2013-10-09 10:53:00
7:39 AM,57.2,51.8,82,30.17,10.0,Calm,Calm,-,N/A,,Partly Cloudy,0,2013-10-09 11:39:00
7:53 AM,57.9,51.1,78,30.18,10.0,Calm,Calm,-,N/A,,Partly Cloudy,0,2013-10-09 11:53:00
8:53 AM,59.0,46.0,62,30.19,10.0,East,6.9,18.4,N/A,,Clear,90,2013-10-09 12:53:00
9:25 AM,59.0,46.4,63,30.20,10.0,East,6.9,-,N/A,,Mostly Cloudy,80,2013-10-09 13:25:00
9:53 AM,59.0,46.9,64,30.21,10.0,ENE,8.1,-,N/A,,Overcast,60,2013-10-09 13:53:00
10:53 AM,62.1,50.0,65,30.21,10.0,NE,5.8,-,N/A,,Overcast,50,2013-10-09 14:53:00
11:21 AM,64.4,51.8,64,30.21,10.0,Variable,5.8,-,N/A,,Scattered Clouds,0,2013-10-09 15:21:00
11:53 AM,66.9,53.1,61,30.21,10.0,East,8.1,-,N/A,,Clear,100,2013-10-09 15:53:00
12:53 PM,69.1,52.0,54,30.18,10.0,ESE,5.8,-,N/A,,Clear,110,2013-10-09 16:53:00
1:53 PM,73.0,53.1,49,30.16,10.0,NNE,8.1,-,N/A,,Clear,20,2013-10-09 17:53:00
2:53 PM,75.0,54.0,48,30.14,10.0,East,4.6,-,N/A,,Clear,80,2013-10-09 18:53:00
3:53 PM,75.0,54.0,48,30.13,10.0,Calm,Calm,-,N/A,,Clear,0,2013-10-09 19:53:00
4:53 PM,75.0,54.0,48,30.12,10.0,SE,3.5,-,N/A,,Clear,140,2013-10-09 20:53:00
5:53 PM,75.9,55.0,48,30.11,10.0,NE,3.5,-,N/A,,Clear,40,2013-10-09 21:53:00
6:53 PM,69.1,60.1,73,30.12,10.0,Calm,Calm,-,N/A,,Clear,0,2013-10-09 22:53:00
7:53 PM,63.0,60.1,90,30.12,10.0,Calm,Calm,-,N/A,,Clear,0,2013-10-09 23:53:00
8:53 PM,61.0,59.0,93,30.13,10.0,Calm,Calm,-,N/A,,Clear,0,2013-10-10 00:53:00
9:53 PM,59.0,57.9,96,30.14,10.0,Calm,Calm,-,N/A,,Clear,0,2013-10-10 01:53:00
10:53 PM,57.9,57.0,97,30.15,10.0,Calm,Calm,-,N/A,,Clear,0,2013-10-10 02:53:00
11:53 PM,57.0,55.0,93,30.15,10.0,Calm,Calm,-,N/A,,Clear,0,2013-10-10 03:53:00